Flag for Libya Weather past 2 weeks in Tripoli, Libya

Now
75 °F

Sunny.


Feels Like: 76 °F
Forecast: 76 / 88 °F
Wind: 7 mph from Southwest

Location: Djerba Mellita

Current Time: Jul 23, 2014 at 10:54:15 AM

Latest Report: Jul 23, 2014 at 7:30 AM


Visibility: 10 mi

Pressure: 29.89 "Hg

Humidity: 78%

Dew point: 68 °F

Location of TripoliLocation

Historic Weather in Tripoli — Graph

°F

Tripoli temperature yesterday

Maximum temperature yesterday: 88 °F (at 4:30 PM)
Minimum temperature yesterday: 79 °F (at 2:00 AM)
Average temperature yesterday: 83 °F

Past Weeks' High & Low Weather Summary

 TemperatureHumidityPressure
High102 °F (Jul 20, 2:00 PM)94% (Jul 15, 5:30 AM)30.07 "Hg (Jul 15, 5:30 AM)
Low70 °F (Jul 19, 6:30 AM)17% (Jul 20, 2:00 PM)29.80 "Hg (Jul 10, 3:30 AM)
Average81 °F62%29.96 "Hg
* Reported Jul 8 7:00 AM — Jul 23 7:30 AM, Tripoli, Weather by CustomWeather, © 2014

Note: Actual official high and low records may vary slightly from our data, if they occured in-between our weather recording intervals... More about our weather records

Advertising

Tripoli weather history for previous 24 hours

 ConditionsComfort  
Time TempWeatherWind HumidityBarometerVisibility
7:30 AM
Jul 23
75 °FSunny.7 mph78%29.89 "Hg10 mi
7:00 AM73 °FSunny.6 mph83%29.89 "Hg10 mi
6:30 AM72 °FSunny.5 mph83%29.89 "Hg10 mi
6:00 AM72 °FClear.5 mph78%29.89 "Hg10 mi
5:30 AM73 °FClear.3 mph74%29.89 "Hg10 mi
5:00 AM73 °FClear.2 mph74%29.89 "Hg10 mi
3:30 AM73 °FClear.3 mph74%29.89 "Hg10 mi
3:00 AM75 °FClear.6 mph69%29.89 "Hg10 mi
2:30 AM75 °FClear.7 mph69%29.89 "Hg10 mi
2:00 AM75 °FClear.3 mph65%29.89 "Hg10 mi
1:00 AM77 °FClear.6 mph65%29.92 "Hg10 mi
7:00 PM
Jul 22
88 °FSunny.12 mph38%29.86 "Hg10 mi
6:30 PM88 °FSunny.9 mph38%29.86 "Hg10 mi
6:00 PM88 °FPassing clouds.10 mph35%29.89 "HgN/A
5:30 PM88 °FPassing clouds.10 mph35%29.89 "HgN/A
5:00 PM88 °FPassing clouds.8 mph31%29.89 "HgN/A
4:30 PM88 °FPassing clouds.10 mph33%29.89 "HgN/A
3:30 PM86 °FPassing clouds.9 mph43%29.92 "HgN/A
3:00 PM84 °FPassing clouds.8 mph48%29.92 "HgN/A
2:30 PM86 °FPassing clouds.8 mph46%29.92 "HgN/A
2:00 PM86 °FPassing clouds.8 mph49%29.92 "HgN/A
1:30 PM82 °FPassing clouds.10 mph51%29.95 "HgN/A
1:00 PM84 °FSunny.9 mph51%29.95 "Hg10 mi
12:30 PM84 °FPassing clouds.8 mph48%29.95 "HgN/A
12:00 PM84 °FPassing clouds.8 mph48%29.95 "HgN/A
11:00 AM82 °FPassing clouds.9 mph55%29.98 "HgN/A
10:30 AM84 °FPassing clouds.10 mph51%29.98 "HgN/A
10:00 AM82 °FPassing clouds.12 mph55%29.95 "HgN/A
Weather by CustomWeather, © 2014

See weather overviewHow to use our weather pages